Regional Weather Roundup
Issued by NWS

Home | Current Version | Previous Version | Text Only | Print | Product List | Glossary On
Versions: 1 2 3 4 5 6 7 8 9 10 11 12 13 14 15 16 17 18 19 20 21 22 23 24 25 26 27 28 29 30 31 32 33 34 35 36 37 38 39 40 41 42 43 44 45 46 47 48 49 50
000
ASUS43 KMKX 242000
RWRWI

WISCONSIN REGIONAL WEATHER ROUNDUP
NATIONAL WEATHER SERVICE MILWAUKEE/SULLIVAN WI
300 PM CDT SAT SEP 24 2016

NOTE: "FAIR" INDICATES FEW OR NO CLOUDS BELOW 12,000 FEET WITH NO
SIGNIFICANT WEATHER AND/OR OBSTRUCTIONS TO VISIBILITY.

WIZ001-002-006>008-014>016-023>028-242100-
NORTHWEST WISCONSIN

CITY           SKY/WX    TMP DP  RH WIND       PRES   REMARKS
SUPERIOR ARPT  CLOUDY    60  58  90 E10G16    30.09F
ASHLAND        CLOUDY    68  60  75 E8        30.12F
HAYWARD        CLOUDY    67  59  75 S9        30.11F
SIREN          CLOUDY    66  60  81 S10G16    30.08F
CUMBERLAND     CLOUDY    64  59  82 SE15G21   30.09F
RICE LAKE      CLOUDY    66  58  75 E14G20    30.12F
CHETEK         NOT AVBL
LADYSMITH      CLOUDY    68  59  71 SE10      30.15F
EAU CLAIRE     CLOUDY    67  60  78 SE13      30.09F
MENOMONIE      CLOUDY    69  61  76 E9G20     30.09F
NEW RICHMOND   CLOUDY    66  60  81 SE9G17    30.07F
OSCEOLA        CLOUDY    67  66  98 SE14      30.09F
$$

WIZ003>005-009-010-017-018-242100-
NORTH CENTRAL WISCONSIN

CITY           SKY/WX    TMP DP  RH WIND       PRES   REMARKS
MANITOWISH WTR NOT AVBL
ARBOR VITAE    MOSUNNY   69  57  65 S10       30.19F
WOODRUFF       MOSUNNY   69  57  65 S10       30.19F
RHINELANDER    SUNNY     69  54  58 SE12      30.19F
EAGLE RIVER    MOSUNNY   68  50  52 SE7       30.20S
LAND O LAKES   SUNNY     69  50  50 SE10      30.21F
PHILLIPS       CLOUDY    65  58  78 SE12      30.16F
TOMAHAWK       PTSUNNY   67  55  64 S5        30.19F
MEDFORD        CLOUDY    65  59  80 S10       30.18S
MERRILL        CLOUDY    66  56  68 SE9       30.20F
$$

WIZ029-030-035-036-043>047-242100-
CENTRAL WISCONSIN

CITY           SKY/WX    TMP DP  RH WIND       PRES   REMARKS
WAUSAU         CLOUDY    68  53  58 SE12      30.17F
MOSINEE        MOSUNNY   66  54  63 SE8       30.19F
MARSHFIELD     CLOUDY    66  55  67 SE9       30.16F
STEVENS POINT  PTSUNNY   65  54  67 E8        30.19F
WAUPACA        PTSUNNY   70  55  59 SE10      30.19F
WAUTOMA        CLOUDY    68  58  70 SE8       30.19F
WISC RAPIDS    LGT RAIN  67  57  70 E12       30.18F
CAMP DOUGLAS   PTSUNNY   65  60  83 SE12      30.15F
$$

WIZ011>013-019>022-031-037>040-048>050-242100-
NORTHEAST WISCONSIN

CITY           SKY/WX    TMP DP  RH WIND       PRES   REMARKS
ANTIGO         CLOUDY    64  52  64 SE8       30.22S
SHAWANO        SUNNY     72  53  50 SE6       30.21F
OCONTO         NOT AVBL
STURGEON BAY   MOSUNNY   66  52  60 E8        30.24F
GREEN BAY      SUNNY     69  53  56 SE9       30.21F
MANITOWOC      NOT AVBL
APPLETON       PTSUNNY   68  52  56 SE9       30.19F
CLINTONVILLE   NOT AVBL
OSHKOSH        MOSUNNY   69  56  62 E10       30.19F
$$

WIZ032>034-041-042-053>061-242100-
SOUTHWEST WISCONSIN

CITY           SKY/WX    TMP DP  RH WIND       PRES   REMARKS
LA CROSSE      CLOUDY    71  63  75 SE8       30.10F
SPARTA         CLOUDY    66  61  81 E12       30.14F
VIROQUA        CLOUDY    67  62  84 SE9       30.14F
BOSCOBEL       CLOUDY    71  64  78 E5        30.12F
PRAIRIE DU CHI CLOUDY    70  63  80 E10       30.11F
PLATTEVILLE    CLOUDY    71  67  87 E7        30.15F
$$

WIZ056-057-062-063-064-067-068-242100-
SOUTH CENTRAL WISCONSIN

CITY           SKY/WX    TMP DP  RH WIND       PRES   REMARKS
REEDSBURG      NOT AVBL
BARABOO/DELLS  CLOUDY    66  59  76 E8        30.17F
LONE ROCK      NOT AVBL
MINERAL POINT  CLOUDY    70  64  83 SE5       30.16F
MADISON        PTSUNNY   69  60  73 E10       30.16F
MIDDLETON      CLOUDY    69  62  78 E10       30.18S
WATERTOWN      CLOUDY    68  62  80 E8        30.17F
MONROE         CLOUDY    70  63  78 E9        30.15F
JANESVILLE     CLOUDY    73  63  68 E9        30.15F
$$

WIZ051-052-058>065-066-070>072-242100-
SOUTHEAST WISCONSIN

CITY           SKY/WX    TMP DP  RH WIND       PRES   REMARKS
MILWAUKEE      PTSUNNY   67  60  78 E12       30.19F
WAUKESHA       CLOUDY    66  59  77 E10       30.20F
MILWAUKEE/TIMM CLOUDY    66  57  72 E6        30.21F
RACINE         CLOUDY    68  61  78 E10       30.20F
BURLINGTON     PTSUNNY   66  58  75 E9        30.18F
KENOSHA        CLOUDY    68  61  78 E12       30.18F
FOND DU LAC    CLOUDY    67  57  70 SE8       30.20S
SHEBOYGAN      CLOUDY    65  55  70 E7        30.21F
WEST BEND      CLOUDY    63  57  82 SE8       30.20F
JUNEAU         CLOUDY    66  59  77 SE12      30.20F
$$

LSZ147-162-242100-
LAKE SUPERIOR

STATION/POSITION TIME  TEMP    WIND        PRES    WAVE
                       AIR SEA DIR/SP/G            HT/PER
                 (UTC) (F)     (DEG/KT/KT) (MB)    (FT/S)
W MID LAKE BUOY  1850   63 61  110/ 12/ 14 1021.4F   2/ 4
DEVILS ISLAND    1900   61      70/ 13/ 15 1021.1F
SAXON HARBOR     1940   70     180/  3/  8 1020.0F
$$

LMZ867-665-643>646-242100-
LAKE MICHIGAN

STATION/POSITION TIME  TEMP    WIND        PRES    WAVE
                       AIR SEA DIR/SP/G            HT/PER
                 (UTC) (F)     (DEG/KT/KT) (MB)    (FT/S)
CHAMBERS ISLAND  1900   65     110/  7/ 14 1023.7F
S GREEN BAY BUOY 1900   65 67  160/  6/  8 1023.3F
N MID LAKE BUOY  1850   62 68  110/ 12/ 14 1024.4F   2/ 3
NORTHPORT PIER   1900   63     110/  9/ 13 1024.4F
SISTER BAY       1908   71     130/ 11/ 13   N/A
KEWAUNEE LAKESHO 1900   63     150/  8/  9 1023.5F
SHEBOYGAN LAKESH 1900   63     130/ 11/ 12 1023.1F
PORT WASHINGTON  1900   63     110/  5/  7 1023.7F
ATWATER BUOY     1900   64 62  100/  8/ 10 1022.8F
MILWAUKEE LAKESH 1910   64      80/  8/  9   N/A
S MID LAKE BUOY  1850   66 72   90/ 10/ 12 1022.2F   2/ 4
KENOSHA   LAKESH 1900   67     110/  8/ 10 1022.0F
$$

TC  - TEMPERATURE IN CELSIUS
VSB - VISIBILITY IN STATUTE MILES
WCI - WIND CHILL INDEX
HX  - HEAT INDEX




USA.gov is the U.S. government's official web portal to all federal, state and local government web resources and services.